Simultaneous Nadir Overpasses (SNOs) Predictions

Prediction of SNOs between GOES-17 and NPP Satellite Orbit:

Table of predicted SNOs for the next 14.0 days since TLE Epoch: 11/23/2024
Index Date Time (GOES-17) GOES-17 Lat,Lon NPP Lat,Lon Distance(km) Time Diff (sec)
1 11/24/2024 08:38:35 -0.00,-104.71 0.71,-107.99 372.94 80
2 11/25/2024 08:17:13 -0.00,-104.71 -0.27,-103.46 142.47 80
3 11/26/2024 20:39:14 0.00,-104.69 -0.89,-108.78 465.59 80
4 11/27/2024 20:23:11 0.00,-104.70 0.09,-104.26 50.35 80
5 11/30/2024 08:26:21 0.01,-104.73 0.05,-105.02 32.82 80
6 12/01/2024 08:04:59 0.01,-104.73 -0.94,-100.50 482.51 80
7 12/02/2024 20:26:59 -0.02,-104.70 -0.26,-105.81 126.33 80
8 12/03/2024 20:10:57 -0.02,-104.71 0.74,-101.29 389.28 80
9 12/05/2024 08:32:48 0.02,-104.74 0.43,-106.57 209.28 80
10 12/06/2024 08:11:25 0.02,-104.73 -0.57,-102.05 305.75 80
